TIME,DELAY(SENSOR),PRES,T(CTD),SAL,OXYGEN,RAWTEMP,T(OPTODE),TCPHASE,FLUOR,BETA(BETA700),BETA(BETA412),BETA(BETA440),CDOM,C(CSC),ED(ED411.90),ED(ED443.80),ED(ED489.40),ED(ED554.70),LU(LU412.20),LU(LU443.80),LU(LU489.40),LU(LU555.00),COMP,TILTX,TILTX(TILTY),CHECK
1338478602,5805,496.9299926757812500,15.7184000015258790,36.1285018920898440,212.6826934814453000,245.1309051513672000,15.7094202041625980,33.7046012878418000,49,107,102,80,69,15415,2147481938,2147774043,2147566372,2147803995,2147313353,2147475446,2147719305,2148244352,328,7,13,40359
1338478766,5802,486.3099975585937500,15.8540000915527340,36.1548995971679700,213.4064941406250000,240.5829010009765600,15.8477001190185550,33.5996208190918000,50,107,101,80,69,15415,2147478656,2147773339,2147565778,2147803136,2147313261,2147471945,2147718052,2148245156,386,6,13,55658
1338478936,5803,473.7600097656250000,16.0592994689941400,36.1926002502441400,215.6891021728515600,233.6779022216797000,16.0576400756835940,33.3765907287597660,50,110,99,80,70,15412,2147480073,2147773531,2147566619,2147802340,2147312000,2147471661,2147719195,2148248667,846,7,13,51564
1338479063,5802,462.6199951171875000,16.2747993469238280,36.2341995239257800,218.7673034667968800,226.7252044677734400,16.2690200805664060,33.1129188537597660,50,107,101,80,69,15413,2147480356,2147772022,2147562587,2147802505,2147315318,2147472566,2147713782,2148242157,902,6,13,19532
1338479192,5803,451.4700012207031000,16.3386993408203120,36.2481002807617200,220.9380035400390600,224.2996978759765600,16.3427600860595700,32.9636993408203100,50,109,101,81,68,15414,2147483593,2147772187,2147564379,2147798016,2147313664,2147474989,2147717019,2148244498,901,7,13,35798
1338479319,5805,440.2600097656250000,16.5025005340576170,36.2801017761230500,223.9407043457031200,219.2601013183593800,16.4959907531738280,32.7367591857910160,50,109,102,80,67,15416,2147482038,2147770624,2147560603,2147799140,2147312768,2147475163,2147715218,2148238180,1052,7,13,51728
1338479447,5802,428.7999877929687500,16.6254005432128900,36.3054008483886700,226.1020965576172000,214.9588928222656200,16.6267700195312500,32.5656204223632800,50,108,101,80,68,15415,2147481444,2147770953,2147563401,2147797622,2147313526,2147478555,2147712548,2148240475,1449,7,13,36652
1338479565,5802,417.8999938964844000,16.7667007446289060,36.3324012756347660,227.5018005371093800,210.4532928466797000,16.7637805938720700,32.4318199157714840,50,108,102,80,67,15412,2147479396,2147774107,2147564123,2147798866,2147312905,2147472512,2147712557,2148237595,1875,7,12,49066
1338479680,5802,407.0400085449219000,16.8673000335693360,36.3521995544433600,228.3023071289062500,207.0121002197265600,16.8684291839599600,32.3439598083496100,50,108,102,79,68,15414,2147482605,2147770825,2147563748,2147798610,2147313627,2147475803,2147712018,2148244708,3028,7,12,56867
1338479795,5800,396.2999877929687500,16.9451007843017580,36.3676986694335940,228.7409057617187500,204.5668945312500000,16.9427890777587900,32.2881698608398440,49,108,101,80,67,15414,2147483565,2147770934,2147563785,2147795821,2147311515,2147477376,2147711954,2148233618,2308,7,13,39372
1338479913,5803,385.5100097656250000,17.0464992523193360,36.3876991271972660,230.4053039550781200,201.2998046875000000,17.0421504974365230,32.1600303649902340,50,108,101,80,67,15408,2147483136,2147772699,2147562048,2147796836,2147315245,2147476105,2147713673,2148239067,3057,7,13,10561
1338480041,5802,374.2200012207031000,17.1480998992919920,36.4086990356445300,232.9553985595703000,197.9046020507812500,17.1454200744628900,31.9873409271240230,50,108,100,80,68,15414,2147485714,2147770496,2147565732,2147796708,2147314194,2147475529,2147712621,2148236790,389,7,13,19468
1338480170,5805,363.4899902343750000,17.2381992340087900,36.4217987060546900,232.5274963378906200,194.9201965332031200,17.2362003326416000,31.9675102233886720,50,110,100,82,68,15409,2147485184,2147771181,2147562404,2147795456,2147314459,2147478436,2147709248,2148238656,1159,7,13,62089
1338480309,5804,352.6600036621094000,17.3248996734619140,36.4421005249023440,234.0041046142578000,192.1936035156250000,17.3191509246826170,31.8581504821777340,50,109,100,80,68,15414,2147487049,2147772626,2147561801,2147796013,2147313700,2147477970,2147707136,2148242029,1972,7,13,27974
1338480493,5804,338.8200073242187500,17.4153003692626950,36.4593009948730500,235.0735931396484400,188.8773040771484400,17.4200496673584000,31.7612590789794920,50,110,100,80,67,15411,2147485211,2147771968,2147563355,2147795392,2147312292,2147479378,2147705563,2148240548,2517,7,13,2228
1338480620,5801,327.1499938964844000,17.4769992828369140,36.4659004211425800,234.1571044921875000,187.0451965332031200,17.4757900238037100,31.7807197570800780,50,110,101,82,67,15401,2147486692,2147770121,2147561289,2147795510,2147311945,2147475648,2147712283,2148235072,3231,7,13,16951
1338480736,5800,315.9899902343750000,17.5604991912841800,36.4790000915527340,235.1230926513672000,184.1804962158203000,17.5629692077636720,31.6948890686035160,50,113,101,81,67,15400,2147487003,2147772891,2147561106,2147792237,2147313901,2147480621,2147712777,2148244873,3575,7,12,61652
1338480854,5804,304.4800109863281000,17.6459007263183600,36.4921989440918000,235.5216979980468800,181.7330932617187500,17.6374492645263670,31.6425495147705080,50,113,102,80,67,15398,2147492818,2147774409,2147564790,2147795803,2147314788,2147479506,2147711286,2148242550,665,7,12,36742
1338480969,5802,292.7500000000000000,17.6886997222900400,36.4953002929687500,234.1374053955078000,179.7194976806640600,17.6987304687500000,31.6821403503417970,50,114,102,81,66,15396,2147488941,2147773723,2147567396,2147794669,2147312265,2147479561,2147712301,2148246537,1226,7,12,60891
1338481072,5802,281.8099975585937500,17.7688007354736330,36.5073013305664060,234.4273986816406200,177.5496063232422000,17.7647800445556640,31.6386508941650400,50,114,103,81,67,15397,2147486464,2147770816,2147574820,2147792859,2147317942,2147477083,2147719780,2148245092,1723,7,13,57600
1338481191,5800,269.9500122070312500,17.8502998352050780,36.5192985534668000,234.4608001708984400,174.8901977539062500,17.8457393646240230,31.6009998321533200,50,113,102,82,66,15400,2147486454,2147773595,2147579072,2147795958,2147315154,2147479853,2147717833,2148243922,2018,7,13,54252
1338481307,5806,259.6499938964844000,17.9046001434326170,36.5242996215820300,234.2032012939453000,172.9114074707031200,17.9059791564941400,31.5868301391601560,50,116,102,81,67,15398,2147486016,2147773723,2147582171,2147794971,2147314304,2147486180,2147717814,2148244580,2525,7,13,40062
1338481436,5803,248.4900054931640600,17.9981002807617200,36.5351982116699200,233.2680053710937500,170.0713043212890600,17.9924602508544920,31.5935707092285160,50,118,102,82,66,15385,2147489225,2147788992,2147615506,2147794724,2147311451,2147487030,2147741760,2148244041,3554,7,13,7300
1338481575,5805,237.3000030517578000,18.0951004028320300,36.5444984436035160,231.5738067626953000,166.5950012207031200,18.0983200073242200,31.6292304992675780,50,114,102,81,68,15393,2147492013,2147792036,2147629348,2147794486,2147315328,2147491090,2147750546,2148245184,142,7,13,21218
1338481726,5802,227.1799926757812500,18.2026004791259770,36.5511016845703100,228.8002929687500000,163.2566986083984400,18.2000007629394530,31.7209892272949220,50,117,102,82,68,15393,2147489764,2147789028,2147624054,2147792429,2147318528,2147495881,2147746898,2148245202,3304,7,13,60103
1338481894,5802,215.5700073242187500,18.8005008697509770,36.5945014953613300,228.9598999023437500,143.6416015625000000,18.7978801727294920,31.4493904113769530,51,118,102,82,66,15388,2147493888,2147794029,2147628324,2147793618,2147313883,2147497600,2147749339,2148241984,368,7,13,63181
1338482046,5804,205.3399963378906200,19.1716003417968750,36.5970993041992200,243.2725067138672000,131.6112060546875000,19.1649703979492200,30.6110401153564450,51,120,103,82,64,15385,2147496576,2147802112,2147651126,2147790774,2147317906,2147503798,2147763062,2148243776,925,7,13,16600
1338482169,5804,197.9100036621093800,19.3108005523681640,36.6029014587402340,252.5332031250000000,127.1234970092773400,19.3020000457763670,30.1386795043945300,52,118,103,82,64,15383,2147496274,2147806976,2147655936,2147792466,2147319707,2147506569,2147762578,2148240073,573,7,13,17738
1338482236,5805,193.9499969482422000,19.3374996185302730,36.6030006408691400,255.9087066650390600,126.0820007324218800,19.3338108062744140,29.9789791107177730,53,120,103,83,63,15377,2147497782,2147805869,2147655707,2147788050,2147316397,2147510299,2147760740,2148239689,892,7,12,11568
1338482303,5802,190.0099945068359400,19.3647994995117200,36.6043014526367200,259.0726928710937500,125.1827011108398400,19.3612804412841800,29.8324909210205080,55,120,104,83,63,15379,2147495844,2147813568,2147675044,2147790253,2147316178,2147516443,2147775588,2148243739,933,7,13,8643
1338482370,5804,185.9299926757812500,19.3677997589111330,36.6008987426757800,260.3518981933594000,125.0672988891601600,19.3647994995117200,29.7770996093750000,56,122,104,85,63,15382,2147506880,2147837531,2147729645,2147793846,2147318774,2147532571,2147813302,2148243145,1350,7,12,31169
1338482428,5801,182.3999938964843800,19.3764991760253900,36.5992012023925800,261.0115966796875000,124.7065963745117200,19.3758201599121100,29.7447395324707030,58,124,104,83,64,15377,2147511058,2147869357,2147808950,2147789412,2147323218,2147556544,2147858477,2148244333,1105,7,13,16887
1338482495,5805,178.2400054931640600,19.3780002593994140,36.5970993041992200,261.7583923339844000,124.7250976562500000,19.3752593994140620,29.7138195037841800,57,123,102,83,62,15373,2147519067,2147899913,2147870528,2147789184,2147322825,2147574637,2147898304,2148246217,1123,7,12,35174
1338482562,5804,173.9299926757812500,19.3803997039794920,36.5965995788574200,262.1879882812500000,124.6554031372070300,19.3773899078369140,29.6947803497314450,61,126,103,84,63,15376,2147526372,2147933202,2147952813,2147790061,2147332214,2147599908,2147950016,2148250587,1358,7,12,5728
1338482617,5803,170.2500000000000000,19.3761005401611330,36.5943984985351560,262.5736083984375000,124.7481994628906200,19.3745498657226560,29.6800403594970700,58,123,103,83,63,15374,2147569225,2148164306,2148521673,2147792612,2147353581,2147758592,2148295515,2148273682,1548,7,12,1578
1338482684,5802,165.6399993896484400,19.3785991668701170,36.5942993164062500,262.8969116210937500,124.7031021118164000,19.3759307861328120,29.6658992767334000,61,123,105,83,63,15373,2147575606,2148142089,2148443675,2147791579,2147347849,2147750336,2148255268,2148269339,1833,7,13,3217
1338482763,5802,160.4900054931640600,19.3798007965087900,36.5937995910644500,262.9848022460937500,124.6636962890625000,19.3771305084228500,29.6617393493652340,64,123,105,83,63,15370,2147557421,2148052955,2148212470,2147789348,2147346596,2147685796,2148110820,2148262902,2092,7,13,7434
1338482842,5800,155.9299926757812500,19.3805007934570300,36.5932998657226560,263.1388854980469000,124.6566009521484400,19.3773498535156250,29.6551303863525400,62,125,102,84,63,15369,2147557476,2148026377,2148144402,2147789394,2147350061,2147671250,2148067693,2148256539,2161,7,12,883
1338482909,5803,151.9299926757812500,19.3789005279541000,36.5933990478515600,263.3268127441406000,124.6648025512695300,19.3770999908447270,29.6477508544921880,63,124,104,84,63,15367,2147574921,2148082889,2148264923,2147790107,2147346084,2147706861,2148148480,2148264027,2702,7,13,55862
1338482976,5803,147.8999938964843800,19.3817005157470700,36.5936012268066400,263.3453063964844000,124.6026000976562500,19.3789997100830080,29.6459102630615230,69,128,104,83,64,15355,2147602020,2148168393,2148452224,2147792292,2147367661,2147770157,2148253924,2148271835,2898,7,13,18167
1338483066,5804,142.9100036621093800,19.3822994232177730,36.5934982299804700,263.2788085937500000,124.5642013549804700,19.3801708221435550,29.6481990814209000,78,130,105,84,64,15352,2147657581,2148356653,2148861110,2147796086,2147402377,2147898770,2148506422,2148285513,3304,7,13,4865
1338483146,5804,139.5500030517578000,19.3826007843017580,36.5929985046386700,263.2625122070312500,124.5557022094726600,19.3804302215576170,29.6487693786621100,81,128,104,87,63,15351,2147753984,2148674358,2149563840,2147802084,2147449545,2148108004,2148912978,2148312859,3493,7,13,37973
1338483237,5803,135.9700012207031200,19.3859004974365230,36.5931015014648440,263.1795043945312500,124.4679031372070300,19.3831100463867200,29.6512203216552730,84,127,105,84,63,15337,2147749732,2148623277,2149402971,2147803364,2147454253,2148072694,2148805833,2148303195,3594,7,13,58814
1338483340,5806,132.0000000000000000,19.3892993927001950,36.5941009521484400,263.3382873535156000,124.3289031982421900,19.3873596191406250,29.6427497863769530,95,133,104,84,63,15341,2148047926,2149591872,2151517549,2147819081,2147602998,2148694811,2150026944,2148377645,135,7,13,7456
1338483446,5804,128.1000061035156200,19.3934993743896500,36.5936012268066400,263.7265014648437500,124.2205963134765600,19.3906707763671880,29.6253890991210940,92,130,106,84,64,15334,2147927570,2149062290,2150240923,2147811986,2147530340,2148316827,2149246025,2148336064,272,7,13,62170
1338483537,5803,124.8700027465820300,19.4004993438720700,36.5936012268066400,264.0069885253906000,124.0218963623046900,19.3967399597167970,29.6110496520996100,97,137,106,85,64,15326,2148213275,2149898121,2152011145,2147835520,2147660032,2148801819,2150198976,2148398409,260,7,13,61969
1338483653,5804,121.0599975585937500,19.4039993286132800,36.5942993164062500,264.8988037109375000,123.8841018676757800,19.4009494781494140,29.5725898742675780,97,131,105,85,64,15319,2148318829,2150084635,2152280676,2147844928,2147712301,2148907190,2150356187,2148411648,119,7,13,51767
1338483764,5804,116.6900024414062500,19.4118003845214840,36.5941009521484400,265.7199096679687500,123.6309967041015600,19.4086799621582030,29.5355491638183600,103,136,105,83,64,15318,2148681106,2150911030,2153833609,2147872457,2147861714,2149293979,2151044187,2148470592,3413,7,13,1736
1338483855,5804,112.5500030517578100,19.4146003723144530,36.5931015014648440,265.9002075195312500,123.5192031860351600,19.4120998382568360,29.5268096923828120,118,141,105,84,63,15292,2148954889,2151455853,2154703451,2147901769,2147958701,2149489426,2151352502,2148500507,139,7,13,64967
1338483946,5803,108.6200027465820300,19.4335002899169920,36.5937004089355500,266.9859924316406000,122.9476013183593800,19.4295597076416000,29.4749107360839840,125,139,106,84,64,15287,2149390866,2152325988,2156089682,2147929554,2148131748,2149818733,2151880438,2148549385,630,7,12,45181
1338484039,5805,104.7099990844726600,19.4426994323730470,36.5929985046386700,267.9623107910156000,122.5794982910156200,19.4407997131347660,29.4305191040039060,130,142,107,85,64,15272,2149581037,2152479853,2155942802,2147949641,2148182720,2149754249,2151625179,2148552731,502,7,13,58236
1338484131,5803,100.8000030517578100,19.4617996215820300,36.5920982360839840,268.4278869628906000,122.0098037719726600,19.4582099914550780,29.4043102264404300,146,145,105,85,64,15252,2151000566,2155400475,2160771739,2148072265,2148729206,2150956827,2153641590,2148740352,3572,7,12,18246
1338484186,5803,98.3399963378906200,19.4727001190185550,36.5918006896972660,268.8312072753906000,121.5796966552734400,19.4713497161865230,29.3825302124023440,147,150,108,86,64,15245,2151463579,2156192722,2161745051,2148106130,2148890176,2151209581,2153984749,2148780754,3306,7,13,4536
1338484241,5803,95.7200012207031200,19.4909000396728500,36.5931015014648440,269.6622924804687500,120.9637985229492200,19.4901695251464840,29.3410892486572270,148,154,108,87,64,15230,2152336000,2157870299,2164238720,2148191241,2149191588,2151765723,2154843264,2148881965,3358,7,12,26035
1338484296,5802,93.0199966430664000,19.5032005310058600,36.5904006958007800,271.1412048339844000,120.5764999389648400,19.5020008087158200,29.2768192291259770,148,152,108,87,64,15233,2153386038,2159716909,2166843300,2148310802,2149577380,2152442212,2155839433,2149003520,3396,7,13,2950
1338484354,5802,90.0800018310546900,19.5363006591796880,36.5920982360839840,271.3781127929687500,119.7118988037109400,19.5284309387207030,29.2563209533691400,158,153,109,87,65,15207,2154506706,2161727424,2169576420,2148414912,2149963291,2153103780,2156801901,2149126034,3426,7,13,16615
1338484410,5802,87.2699966430664000,19.5377998352050780,36.5881996154785160,271.2656860351562500,119.3439025878906200,19.5396709442138670,29.2561302185058600,155,151,109,85,63,15194,2155901257,2163997997,2172291190,2148553956,2150435620,2153902116,2157861650,2149265417,3459,7,13,64976
1338484465,5802,84.5899963378906200,19.5676002502441400,36.5901985168457000,271.6650085449219000,118.5699005126953100,19.5633296966552730,29.2301197052001950,145,154,108,89,64,15191,2157901961,2167416082,2176710747,2148766006,2151113161,2155033097,2159407204,2149468800,3459,7,13,17982
1338484520,5806,82.0000000000000000,19.5685005187988280,36.5904006958007800,272.1577148437500000,118.4544982910156200,19.5668506622314450,29.2091598510742200,138,148,109,86,66,15187,2160092123,2170951149,2180837824,2148970029,2151933312,2156371785,2161170477,2149690843,84,7,13,34783
1338484575,5801,79.4599990844726600,19.5914001464843750,36.5896987915039060,272.5073852539062500,117.7289962768554700,19.5890293121337900,29.1859493255615230,128,151,108,88,65,15173,2162740836,2175024000,2185407012,2149242249,2152923154,2158003419,2163209188,2149960731,274,7,13,19208
1338484630,5806,77.0299987792968800,19.6340999603271500,36.5903015136718750,273.2214965820312500,116.4829025268554700,19.6271190643310550,29.1418495178222660,114,153,107,88,63,15172,2162763209,2174313874,2183264320,2149218587,2153046473,2157885787,2162524790,2149903195,518,7,13,31470
1338484688,5805,74.6800003051757800,19.6515007019042970,36.5918998718261700,274.8717956542969000,115.7708969116211000,19.6488800048828120,29.0677795410156250,115,154,107,86,63,15177,2168815542,2184118820,2195446061,2149828882,2155478930,2162066267,2167989641,2150527588,303,7,13,59739
1338484743,5806,72.5199966430664000,19.6576995849609380,36.5909996032714840,275.7322082519531000,115.4485015869140600,19.6587390899658200,29.0298309326171880,113,150,108,87,64,15158,2172094747,2188519899,2199903186,2150216237,2156798162,2164056237,2170137197,2150784091,18,7,13,40417
1338484798,5803,70.4499969482421900,19.7206001281738280,36.5912017822265600,276.0592041015625000,113.6316986083984400,19.7142906188964840,28.9939804077148440,107,152,109,89,61,15160,2175847360,2193425746,2204605613,2150607305,2158458678,2166476982,2172750793,2151111469,3519,7,13,11805
1338484853,5805,68.5199966430664000,19.7471008300781250,36.5922012329101560,277.0935974121094000,112.6299972534179700,19.7449207305908200,28.9409599304199220,107,157,111,90,64,15155,2180016118,2198831634,2210022829,2151043392,2160277065,2169201362,2175737874,2151455881,3133,7,13,16623
1338484908,5803,66.6500015258789000,19.7761993408203120,36.5928993225097660,278.0122070312500000,111.6847991943359400,19.7738304138183600,28.8933906555175780,102,159,112,88,63,15121,2183757760,2203409472,2214333110,2151506724,2162229412,2171972781,2178564553,2151820086,2863,7,13,53648
1338484964,5806,64.8700027465820300,19.7905998229980470,36.5924987792968750,278.6657104492187500,111.1416015625000000,19.7904396057128900,28.8612003326416000,99,158,110,90,62,15140,2189220608,2210411273,2221323648,2152144411,2164836086,2175678994,2182484516,2152312283,2693,7,13,54021
1338485043,5802,61.9900016784668000,19.9689998626709000,36.5951995849609400,279.0801086425781000,104.4486999511718800,19.9952106475830080,28.7609806060791000,88,152,113,88,61,15153,2198492315,2221627017,2232063625,2153266468,2169886774,2182658166,2189380242,2153173229,1998,7,13,57497
1338485098,5802,59.7299995422363300,20.1972999572753900,36.6013984680175800,279.6665039062500000,98.3225936889648400,20.1827602386474600,28.6615600585937500,83,153,113,90,64,15119,2205831149,2229573284,2239172873,2154166875,2174325147,2188416466,2194568438,2153836004,1889,6,13,53738
1338485153,5801,57.9000015258789060,20.2600994110107420,36.6049995422363300,279.9186096191406000,95.8973312377929700,20.2570495605468750,28.6216506958007800,81,151,112,90,62,15115,2214075218,2239107529,2248273426,2155152356,2179212013,2194686582,2200394395,2154597513,1866,7,13,43744
1338485208,5805,56.0699996948242200,20.4029006958007800,36.6053009033203100,279.2482910156250000,90.8843536376953100,20.4106597900390620,28.5847396850585940,79,151,115,91,59,15124,2220913389,2246577014,2255133750,2156213732,2183251520,2199508882,2204405010,2155131876,1848,7,13,34633
1338485363,5805,52.9199981689453100,20.8285999298095700,36.5780982971191400,276.5062866210937500,78.8086395263671900,20.7810592651367200,28.5399608612060550,71,151,111,91,62,15134,2230373668,2255431305,2262538980,2158168411,2191311396,2209088274,2212416438,2156187291,2654,6,13,21380
1338485420,5801,51.9000015258789060,20.9409008026123050,36.5533981323242200,275.1098022460937500,74.1545333862304700,20.9239597320556640,28.5361900329589840,71,152,111,87,60,15135,2236403309,2262725961,2269933348,2158903177,2195836736,2214392356,2216787995,2156797696,3052,7,13,47301
1338485493,5803,49.5400009155273440,21.0429992675781250,36.5429000854492200,273.5433959960937500,70.5235366821289000,21.0355091094970700,28.5520801544189450,65,150,111,88,61,15150,2245128667,2272476169,2280599515,2161179940,2203886290,2223742674,2224730441,2158014272,2661,7,13,8122
1338485552,5800,47.7200012207031250,21.0685997009277340,36.5415992736816400,272.7044067382812500,69.3721771240234400,21.0708904266357420,28.5706996917724600,65,144,108,89,60,15168,2251897508,2279391533,2287862272,2163396086,2211542464,2232342665,2232021805,2159292854,1567,8,13,4638
1338485611,5806,45.7999992370605500,21.0757007598876950,36.5401000976562500,272.3533935546875000,68.9240112304687500,21.0846595764160160,28.5788993835449220,64,147,111,89,56,15159,2259218441,2288099913,2297380214,2165252745,2219480795,2241342528,2239510418,2160425426,1165,7,13,46686
1338485671,5805,43.7099990844726560,21.0904998779296880,36.5376014709472660,272.1112976074219000,68.3364791870117200,21.1027202606201170,28.5811100006103500,63,146,109,91,58,15170,2266832612,2295463113,2304695158,2167886902,2226488018,2248769426,2245016603,2161411556,938,6,13,56153
1338485727,5804,41.7099990844726560,21.1215000152587900,36.5297012329101560,271.8947143554687500,67.4970779418945300,21.1285190582275400,28.5792102813720700,61,145,111,86,59,15171,2276248356,2304435666,2313345746,2171393554,2236438226,2259475538,2253693046,2162934884,540,7,13,64728
1338485773,5804,39.5999984741210940,21.1436996459960940,36.5247993469238300,271.6683044433594000,66.7852401733398400,21.1504001617431640,28.5793209075927730,60,147,111,90,60,15171,2287132315,2315215844,2324787117,2175588900,2246824969,2270310162,2262069732,2164631222,130,7,12,21436
1338485819,5806,37.4000015258789060,21.1483993530273440,36.5243988037109400,271.5975952148437500,66.5500869750976600,21.1576309204101560,28.5792198181152340,59,147,112,92,60,15167,2300619428,2329469641,2339449426,2180115062,2260707401,2285538907,2274651465,2166813796,3590,7,13,19568
1338485865,5803,35.3400001525878900,21.1665000915527340,36.5219001770019500,271.6387023925781000,65.9698410034179700,21.1754703521728500,28.5703506469726560,59,146,119,89,62,15159,2318805814,2349365275,2362018797,2186950217,2276048539,2301869074,2287914605,2169629248,3312,6,12,22468
1338485912,5803,33.3300018310546900,21.1716003417968750,36.5224990844726560,271.6070861816406000,65.7679367065429700,21.1816806793212900,28.5691509246826170,58,145,112,90,60,15160,2315492224,2340511588,2349462116,2187943872,2286285613,2311468553,2294839908,2171075465,2789,8,12,35162
1338485958,5804,31.4500007629394530,21.1800994873046880,36.5211982727050800,271.5581970214844000,65.5026931762695300,21.1898403167724600,28.5675907135009770,59,147,112,90,57,15161,2335550893,2362554550,2373620123,2196785737,2303773293,2330168905,2310776173,2174448210,2527,6,13,53285